281P/MOSS (2023)

Japanese version
Home page
Updated on January 8, 2023

---------------------------------------------------------------------

* Profile

* Orbital Elements

Epoch 2022 Jan. 21.0 TT = JDT 2459600.5                                         
T 2023 Feb. 1.82017 TT                                  Rudenko                 
q   4.0345103            (2000.0)            P               Q                  
n   0.09159781     Peri.   26.68069     -0.40299287     -0.91150683             
a   4.8739305      Node    87.17994     +0.82430390     -0.40051113             
e   0.1722265      Incl.    4.71908     +0.39764284     -0.09352077             
P  10.8                                                                         
From 103 observations 2000 Nov. 17-2021 Nov. 7, mean residual 0".6.             

* Magnitudes Graph

        m1 = 11.0 + 5 log d + 10.0 log r

---------------------------------------------------------------------

The orbital elements are published on M.P.E.C. 2021-W31.
The magnitudes graphs are made with Comet for Windows.

---------------------------------------------------------------------

Copyright(C) Seiichi Yoshida (comet@aerith.net). All rights reserved.